GW2305 Weather Reports


Display with metric or nautical units.
time (UTC)temp
F
wind
direction
speed
MPH
gust
MPH
rain 1hr
in
rain 24hr
in
rain mn
in
humidity
%
barometer
mb
20260505213041 62 216 6.0 15.0 0.00 0.00 0.00 72 1004.9
20260505211559 61 218 8.0 19.0 0.00 0.00 0.00 73 1004.9
20260505210056 62 260 6.0 15.0 0.00 0.00 0.00 72 1004.7
20260505204609 63 175 5.0 11.0 0.00 0.00 0.00 72 1004.7
20260505203009 62 226 6.0 14.0 0.00 0.00 0.00 73 1004.8
20260505200018 63 143 6.0 11.0 0.00 0.00 0.00 72 1005.2
20260505194534 63 186 6.0 10.0 0.00 0.00 0.00 73 1005.5
20260505193039 63 231 5.0 12.0 0.00 0.00 0.00 73 1005.7
20260505191555 63 172 5.0 14.0 0.00 0.00 0.00 73 1005.7
20260505190047 63 191 3.0 7.0 0.00 0.00 0.00 73 1006.0
20260505184611 61 200 5.0 11.0 0.00 0.00 0.00 75 1006.0
20260505183027 60 167 7.0 12.0 0.00 0.00 0.00 76 1005.9
20260505181537 60 236 7.0 14.0 0.00 0.00 0.00 77 1006.0
20260505180054 60 215 9.0 14.0 0.00 0.00 0.00 75 1006.4
20260505174503 61 231 6.0 12.0 0.00 0.00 0.00 75 1006.8
20260505173008 61 274 6.0 12.0 0.00 0.00 0.00 76 1006.5
20260505171517 60 207 4.0 13.0 0.00 0.00 0.00 77 1006.8
20260505170026 59 225 6.0 12.0 0.00 0.00 0.00 78 1007.1
20260505164542 58 167 9.0 13.0 0.00 0.00 0.00 78 1007.4
20260505163040 59 252 6.0 14.0 0.00 0.00 0.00 79 1007.5
20260505161555 60 175 7.0 12.0 0.00 0.00 0.00 76 1007.5
20260505153051 55 156 5.0 14.0 0.00 0.00 0.00 83 1008.2
20260505151550 55 155 4.0 13.0 0.00 0.00 0.00 83 1007.9
20260505124541 55 223 2.0 7.0 0.00 0.00 0.00 83 1008.2
20260505123059 54 198 4.0 9.0 0.00 0.00 0.00 83 1008.2
20260505121549 53 189 5.0 7.0 0.00 0.00 0.00 84 1008.2
20260505120058 53 217 3.0 6.0 0.00 0.00 0.00 85 1008.2
20260505114614 52 210 0.0 6.0 0.00 0.00 0.00 86 1008.4
20260505113002 51 225 3.0 7.0 0.00 0.00 0.00 86 1008.5
20260505111511 50 230 2.0 7.0 0.00 0.00 0.00 88 1008.4